[[{"header":{"parameterUnit":"m.s-1","parameterCategory":1,"la1":30.2991,"la2":30.254,"lo1":-89.0895,"lo2":-89.0444,"dy":0.0017,"dx":0.0017,"nx":28,"ny":28,"refTime":"2025-05-31T09:00:00:Z","depth":0,"parameterNumber":2,"parameterNumberName":"U-component_of_WINDS"},"data":[0,0,0,0,0,0,0,0,0,0,0,0,0,0,0,0,0,0,0,0,0,0,0,0,0,0,0,0,0,0,0,0,0,0,0,0,0,0,0,0,0,0,0,0,0,0,0,0,0,0,0,0,0,0,0,0,0,0,0.2744,0.2743,0,0.2698,0.2698,0.2697,0.2667,0.2666,0.2666,0.2666,0.2621,0.262,0.2619,0,0,0,0,0,0,0,0,0,0,0,0,0,0.2803,0.2802,0.2744,0.2743,0.2743,0.2699,0.2698,0.2697,0.2667,0.2666,0.2666,0.2666,0.2621,0.262,0.2619,0,0,0,0,0,0,0,0,0,0,0,0,0,0.277,0.2802,0.2744,0.2722,0.272,0.2699,0.2698,0.2697,0.2667,0.2666,0.2666,0.2666,0.2621,0.262,0.2618,0.2616,0,0,0.2614,0.2613,0,0,0,0,0,0,0,0,0.2771,0.2767,0.2726,0.2723,0.2721,0.2688,0.2702,0.267,0.2667,0.2687,0.2666,0.2665,0.2643,0.264,0.2632,0.2614,0.2612,0.2614,0.2613,0.2612,0.2612,0,0,0,0,0,0,0,0.2774,0.2769,0.2726,0.2725,0.2722,0.2714,0.2709,0.2696,0.2668,0.2685,0.2683,0.2678,0.2642,0.2634,0.2631,0.2611,0.2614,0.2612,0.2612,0.2611,0.2586,0.2586,0,0,0,0,0,0,0.278,0.2771,0.2727,0.2725,0.2746,0.2713,0.2708,0.2699,0.2668,0.2663,0.2678,0.2676,0.2637,0.2633,0.2629,0.2622,0.2612,0.2611,0.261,0.2586,0.2586,0.2586,0,0,0,0,0,0,0.2781,0.2776,0.2729,0.2747,0.2741,0.2713,0.2703,0.2698,0.269,0.2662,0.2657,0.2675,0.2636,0.2631,0.2619,0.2621,0.261,0.2609,0.2585,0.2586,0.2586,0.261,0,0,0,0,0,0,0.2783,0.2777,0.2776,0.2747,0.274,0.272,0.2703,0.2697,0.2687,0.2685,0.2658,0.2653,0.2635,0.2621,0.2617,0.2618,0.2608,0.2585,0.2585,0.2586,0.2609,0.2611,0.2613,0,0,0,0,0,0.2785,0.2785,0.2776,0.2771,0.2738,0.272,0.2716,0.2695,0.2688,0.2686,0.2668,0.2654,0.2621,0.262,0.2616,0.2616,0.2585,0.2585,0.2586,0.2608,0.2611,0.2613,0,0,0,0,0,0,0.2816,0.2781,0.2771,0.2762,0.2744,0.2715,0.2712,0.2699,0.2683,0.2681,0.2656,0.265,0.264,0.2627,0.2627,0.2611,0.2601,0.2601,0.262,0.2622,0.2624,0.2627,0.2606,0,0,0,0,0,0.2821,0.2809,0.278,0.2775,0.2766,0.2741,0.2732,0.2717,0.2698,0.2691,0.2672,0.2654,0.2639,0.263,0.2615,0.2607,0.26,0.2605,0.2607,0.2609,0.2609,0.2601,0.2603,0.2588,0.2588,0.2588,0,0,0.2833,0.2812,0.2807,0.278,0.2765,0.2752,0.2735,0.2723,0.2714,0.2689,0.2675,0.2661,0.2639,0.2628,0.2622,0.2617,0.2611,0.261,0.2611,0.261,0.2602,0.2604,0.2605,0.2588,0.2588,0.2588,0,0,0.2847,0.2831,0.2824,0.2808,0.2785,0.2767,0.2766,0.2738,0.2727,0.2713,0.2694,0.2682,0.2658,0.2642,0.2631,0.2637,0.2623,0.2633,0.2644,0.2637,0.2638,0.2639,0.264,0.264,0.2633,0.2633,0.2633,0,0.2865,0.2845,0.2822,0.2811,0.2799,0.2775,0.2767,0.2753,0.2726,0.2719,0.2713,0.268,0.2664,0.2648,0.2649,0.2641,0.2638,0.2636,0.264,0.264,0.2641,0.2641,0.2642,0.2634,0.2634,0.2634,0.2634,0,0.2867,0.2854,0.2851,0.2824,0.2812,0.2803,0.2777,0.2768,0.2754,0.2737,0.2722,0.2701,0.268,0.2676,0.2663,0.2657,0.2654,0.2644,0.2634,0.2644,0.2644,0.2644,0.2636,0.2636,0.2635,0.2635,0,0,0.29,0.2859,0.2858,0.2845,0.2816,0.2805,0.2794,0.2773,0.2765,0.2746,0.2736,0.2714,0.2704,0.2692,0.2676,0.267,0.2674,0.2661,0.266,0.2663,0.2665,0.2672,0.2673,0.2665,0.2665,0.2665,0.2667,0,0.2909,0.2887,0.2865,0.2851,0.2838,0.2814,0.2804,0.2785,0.2768,0.2754,0.2736,0.2721,0.271,0.2701,0.2695,0.2675,0.2674,0.2675,0.2654,0.2653,0.2659,0.2673,0.2681,0.2684,0.2667,0.2667,0.2667,0,0.2917,0.2898,0.2882,0.2853,0.2846,0.2838,0.2816,0.2803,0.278,0.2768,0.2753,0.2736,0.2722,0.2714,0.2693,0.2694,0.2684,0.2673,0.2673,0.2669,0.266,0.2669,0.2684,0.2684,0.2667,0.2667,0.2667,0,0.2941,0.2912,0.2898,0.2887,0.2853,0.2847,0.2833,0.2809,0.2798,0.2778,0.277,0.275,0.2739,0.2723,0.2701,0.2697,0.2682,0.2672,0.2671,0.2672,0.2669,0.2669,0.2682,0.2664,0.2664,0.2664,0.2664,0,0.2952,0.2943,0.2908,0.2899,0.2888,0.2862,0.2852,0.2835,0.2814,0.2801,0.278,0.2769,0.274,0.2725,0.2708,0.2692,0.2688,0.2677,0.2673,0.2679,0.268,0.2672,0.267,0.2664,0.2664,0.2664,0.2664,0,0.2977,0.2953,0.2936,0.2904,0.2896,0.2889,0.2861,0.2852,0.2833,0.2817,0.2812,0.2784,0.2765,0.2741,0.2714,0.2702,0.2689,0.2682,0.2696,0.2693,0.2693,0.2693,0.27,0.2699,0.2683,0.2683,0.2684,0,0.2985,0.2977,0.2944,0.2934,0.2919,0.2903,0.2891,0.2865,0.2853,0.2825,0.2818,0.2797,0.2779,0.275,0.2726,0.2706,0.2698,0.2702,0.2695,0.27,0.2696,0.2697,0.2695,0.2703,0.2704,0.2704,0.2704,0,0.3002,0.299,0.2973,0.295,0.2936,0.2917,0.2898,0.289,0.2861,0.2848,0.2827,0.2813,0.2785,0.2764,0.274,0.2725,0.2709,0.2706,0.2705,0.2711,0.2719,0.2713,0.27,0.2706,0.2706,0.2706,0.2706,0.2706,0.3018,0.3009,0.2984,0.2964,0.2947,0.2929,0.2917,0.2897,0.288,0.2855,0.2841,0.282,0.2796,0.2762,0.2747,0.273,0.2725,0.2723,0.2722,0.2722,0.2723,0.2722,0.2726,0.2726,0.2726,0.2726,0.2726,0,0.3032,0.3015,0.2997,0.297,0.2954,0.294,0.2918,0.2905,0.2888,0.2866,0.2849,0.2824,0.2803,0.2778,0.2755,0.2747,0.2739,0.2742,0.2742,0.2738,0.273,0.2733,0.2748,0.2748,0.2748,0.2748,0.2748,0.2748,0.3038,0.3022,0.3007,0.2981,0.2963,0.2943,0.2931,0.2914,0.2896,0.287,0.2852,0.2836,0.2812,0.2787,0.2767,0.276,0.2752,0.2757,0.2748,0.2741,0.2739,0.2737,0.274,0.2756,0.2756,0.2757,0.2757,0.2757]},{"header":{"parameterUnit":"m.s-1","parameterCategory":1,"la1":30.2991,"la2":30.254,"lo1":-89.0895,"lo2":-89.0444,"dy":0.0017,"dx":0.0017,"nx":28,"ny":28,"refTime":"2025-05-31T09:00:00:Z","depth":0,"parameterNumber":3,"parameterNumberName":"V-component_of_WINDS"},"data":[0,0,0,0,0,0,0,0,0,0,0,0,0,0,0,0,0,0,0,0,0,0,0,0,0,0,0,0,0,0,0,0,0,0,0,0,0,0,0,0,0,0,0,0,0,0,0,0,0,0,0,0,0,0,0,0,0,0,-0.0788,-0.0788,0,-0.0823,-0.0824,-0.0824,-0.0879,-0.088,-0.0881,-0.0882,-0.0917,-0.0917,-0.0917,0,0,0,0,0,0,0,0,0,0,0,0,0,-0.0766,-0.0766,-0.0788,-0.0788,-0.0788,-0.0823,-0.0824,-0.0824,-0.0879,-0.088,-0.0881,-0.0882,-0.0917,-0.0917,-0.0917,0,0,0,0,0,0,0,0,0,0,0,0,0,-0.0786,-0.0766,-0.0787,-0.082,-0.0823,-0.0823,-0.0824,-0.0824,-0.0878,-0.088,-0.0881,-0.0883,-0.0917,-0.0917,-0.0917,-0.0887,0,0,-0.0917,-0.0917,0,0,0,0,0,0,0,0,-0.0785,-0.0787,-0.0815,-0.0818,-0.0821,-0.0848,-0.0829,-0.0845,-0.0878,-0.0857,-0.0882,-0.0883,-0.0893,-0.0895,-0.0898,-0.0889,-0.0891,-0.0917,-0.0917,-0.0917,-0.0917,0,0,0,0,0,0,0,-0.0783,-0.0786,-0.0802,-0.0815,-0.0819,-0.0833,-0.0837,-0.0832,-0.0866,-0.0859,-0.0863,-0.0867,-0.0895,-0.0898,-0.0899,-0.0891,-0.0917,-0.0917,-0.0917,-0.0917,-0.0861,-0.086,0,0,0,0,0,0,-0.0777,-0.0784,-0.0801,-0.0803,-0.0806,-0.0832,-0.0837,-0.0838,-0.0866,-0.0872,-0.0866,-0.0869,-0.0897,-0.0899,-0.0901,-0.0869,-0.0917,-0.0917,-0.0917,-0.0863,-0.0861,-0.0859,0,0,0,0,0,0,-0.0777,-0.0778,-0.0799,-0.0795,-0.0798,-0.0831,-0.0832,-0.0838,-0.0841,-0.0871,-0.0878,-0.0863,-0.0899,-0.0901,-0.0891,-0.0871,-0.0917,-0.0917,-0.0864,-0.0862,-0.086,-0.0805,0,0,0,0,0,0,-0.0776,-0.0778,-0.0767,-0.0794,-0.0798,-0.0788,-0.083,-0.0838,-0.0841,-0.0847,-0.087,-0.0876,-0.09,-0.089,-0.0891,-0.0872,-0.0917,-0.0866,-0.0863,-0.0861,-0.0809,-0.0801,-0.0795,0,0,0,0,0,-0.0775,-0.0749,-0.0766,-0.0768,-0.0785,-0.0787,-0.079,-0.0818,-0.0839,-0.0829,-0.0849,-0.0875,-0.0873,-0.0889,-0.089,-0.0871,-0.0868,-0.0864,-0.0861,-0.0812,-0.0803,-0.0795,0,0,0,0,0,0,-0.0718,-0.0753,-0.0772,-0.0755,-0.0768,-0.0796,-0.0784,-0.0808,-0.0814,-0.0819,-0.0854,-0.0859,-0.0844,-0.0857,-0.0874,-0.0845,-0.0875,-0.0871,-0.0837,-0.0828,-0.0822,-0.0819,-0.0917,0,0,0,0,0,-0.0704,-0.0703,-0.0733,-0.0715,-0.0721,-0.0751,-0.0753,-0.0774,-0.0789,-0.0794,-0.0813,-0.0825,-0.0828,-0.0829,-0.0833,-0.0811,-0.0817,-0.0798,-0.0791,-0.0785,-0.0782,-0.0772,-0.0764,-0.0848,-0.0848,-0.0848,0,0,-0.0674,-0.0693,-0.069,-0.0704,-0.0717,-0.0714,-0.0755,-0.0751,-0.075,-0.0793,-0.0785,-0.0799,-0.0816,-0.08,-0.0794,-0.081,-0.076,-0.0781,-0.0776,-0.0776,-0.0768,-0.076,-0.0753,-0.0846,-0.0846,-0.0847,0,0,-0.0618,-0.0632,-0.0619,-0.0631,-0.065,-0.0671,-0.0667,-0.0693,-0.0704,-0.0697,-0.073,-0.0729,-0.0732,-0.0743,-0.0749,-0.0699,-0.0724,-0.0699,-0.0663,-0.0653,-0.0646,-0.064,-0.0623,-0.0616,-0.0696,-0.0696,-0.0696,0,-0.0579,-0.0577,-0.0609,-0.0603,-0.0609,-0.0649,-0.0636,-0.0646,-0.0665,-0.0668,-0.0685,-0.0692,-0.0705,-0.0693,-0.0681,-0.0684,-0.0682,-0.0697,-0.0645,-0.0639,-0.0634,-0.0618,-0.0611,-0.0693,-0.0693,-0.0693,-0.0694,0,-0.0528,-0.0526,-0.0513,-0.0531,-0.0535,-0.0526,-0.0556,-0.0557,-0.0578,-0.0597,-0.0589,-0.0608,-0.0617,-0.0615,-0.0635,-0.0606,-0.0615,-0.0638,-0.0669,-0.0623,-0.0608,-0.0602,-0.0688,-0.069,-0.069,-0.0691,0,0,-0.0436,-0.0474,-0.0468,-0.0477,-0.0502,-0.0501,-0.0494,-0.0503,-0.0503,-0.0515,-0.0509,-0.0512,-0.0534,-0.0541,-0.0563,-0.0554,-0.0514,-0.0578,-0.0579,-0.0566,-0.0483,-0.0466,-0.0458,-0.0531,-0.053,-0.0529,-0.0482,0,-0.0386,-0.0376,-0.0405,-0.0387,-0.0387,-0.0426,-0.042,-0.0434,-0.0451,-0.0453,-0.0473,-0.0474,-0.0503,-0.0507,-0.05,-0.052,-0.0498,-0.0524,-0.0526,-0.0526,-0.0521,-0.0451,-0.0432,-0.0387,-0.0477,-0.0476,-0.0475,0,-0.0325,-0.0335,-0.0318,-0.0344,-0.0345,-0.0339,-0.035,-0.0352,-0.0369,-0.0382,-0.039,-0.0416,-0.0411,-0.0441,-0.0435,-0.0452,-0.0455,-0.0465,-0.0464,-0.0465,-0.0497,-0.045,-0.0374,-0.0367,-0.0466,-0.0467,-0.0468,0,-0.0261,-0.027,-0.0261,-0.0268,-0.0298,-0.0293,-0.0305,-0.0324,-0.0328,-0.0338,-0.0341,-0.035,-0.0355,-0.0361,-0.0389,-0.0408,-0.038,-0.0412,-0.0391,-0.039,-0.0383,-0.0383,-0.0306,-0.0384,-0.0384,-0.0385,-0.0385,0,-0.0202,-0.019,-0.0233,-0.0227,-0.0215,-0.0249,-0.0236,-0.0252,-0.0269,-0.0267,-0.0301,-0.0299,-0.0336,-0.0337,-0.0359,-0.0351,-0.0353,-0.0364,-0.037,-0.0361,-0.0359,-0.0363,-0.0367,-0.0383,-0.0383,-0.0384,-0.0384,0,-0.0128,-0.0156,-0.0149,-0.0179,-0.0186,-0.0176,-0.0201,-0.0198,-0.0218,-0.0215,-0.0217,-0.0248,-0.0252,-0.0281,-0.0291,-0.0306,-0.029,-0.0302,-0.0284,-0.0288,-0.0266,-0.0267,-0.0188,-0.018,-0.0263,-0.0262,-0.0262,0,-0.0088,-0.008,-0.0109,-0.0111,-0.0122,-0.0124,-0.0129,-0.0162,-0.0166,-0.0185,-0.0179,-0.0186,-0.0194,-0.0198,-0.0222,-0.023,-0.0243,-0.0215,-0.0244,-0.0236,-0.0243,-0.0243,-0.0243,-0.0208,-0.0207,-0.0206,-0.0205,0,-0.0015,-0.0029,-0.0035,-0.0046,-0.0051,-0.0061,-0.0073,-0.0073,-0.011,-0.0112,-0.0117,-0.0123,-0.0134,-0.0141,-0.0153,-0.0166,-0.0192,-0.0196,-0.0192,-0.0182,-0.0173,-0.0178,-0.0267,-0.0198,-0.0198,-0.0199,-0.0199,-0.02,0.0043,0.0048,0.0028,0.0022,0.0009,-0.0001,0.0,-0.002,-0.0025,-0.0037,-0.0057,-0.0059,-0.0077,-0.0097,-0.0108,-0.011,-0.0125,-0.0119,-0.0117,-0.0115,-0.0111,-0.0172,-0.0113,-0.0113,-0.0113,-0.0113,-0.0114,0,0.0114,0.0099,0.0094,0.0078,0.0073,0.0049,0.0034,0.0031,0.003,0.0014,0.0007,0.0001,-0.0006,-0.003,-0.004,-0.0037,-0.0049,-0.0039,-0.0039,-0.0042,-0.0097,-0.01,-0.0029,-0.0029,-0.0029,-0.0029,-0.0029,-0.0029,0.0151,0.0158,0.0141,0.0141,0.0125,0.0122,0.0116,0.0105,0.0093,0.0087,0.0081,0.0065,0.0045,0.0034,0.0026,0.0019,0.0017,0.0032,0.0021,-0.003,-0.0038,-0.0046,-0.0049,0.0032,0.0032,0.0076,0.0076,0.0077]}]]